sat.trackr.live / text

‹ back to catalog

STARLINK-5764

NORAD 55602 · 2023-020AK

PAYLOAD ACTIVE UNKNOWN

§ Identity

Operator
Country
US
Launch date
2023-02-12
Launch site
AFETR
Launch vehicle
Mass (kg)
RCS (m²)

Purposes: comms

External: N2YO · Heavens-Above · Gunter

§ Orbital elements

Epoch: 2026-05-24T20:19:45.705792Z

Period
94.27 min
Inclination
43.0037°
Eccentricity
0.0001873
Mean motion
15.27576217 rev/d
Perigee alt
481.8 km
Apogee alt
484.3 km
Semi-major
6,861.2 km
B*
1.5183e-5
RAAN
284.3715°
Arg perigee
276.5637°
Mean anomaly
83.5001°
Rev number
18,068

§ Raw data

STARLINK-57641 55602U 23020AK  26144.84705678  .00000155  00000+0  15183-4 0  99992 55602  43.0037 284.3715 0001873 276.5637  83.5001 15.27576217180685

JSON: /api/v1/satellites/55602 · /tle

For live sub-satellite position, see the globe view (requires WebGL).

§ Visibility from observer

Set your observer location to see the next 7 days of passes ≥ 10°. The values pass through the URL so the page stays shareable.

No JS? Fill the form by hand. The geolocation button needs JavaScript.